Flag for Canada Weather past 2 weeks in Brantford, Ontario, Canada

Now
16 °F

Passing clouds.


Feels Like: 7 °F
Forecast: 12 / 33 °F
Wind: 6 mph from South

Location: Hamilton Airport

Current Time: Jan 29, 2015 at 1:19:18 AM

Latest Report: Jan 29, 2015 at 12:00 AM


Visibility: 15 mi

Pressure: 30.27 "Hg

Humidity: 79%

Dew point: 10 °F

Location of BrantfordLocation

Historic Weather in Brantford — Graph

°F

Brantford temperature yesterday

Maximum temperature yesterday: 25 °F (at 3:00 PM)
Minimum temperature yesterday: 0 °F (at 8:00 AM)
Average temperature yesterday: 11 °F

Past Weeks' High & Low Weather Summary

 TemperatureHumidityPressure
High41 °F (Jan 18, 3:00 AM)100% (Jan 24, 7:00 PM)30.55 "Hg (Jan 24, 7:00 PM)
Low-4 °F (Jan 14, 8:00 AM)36% (Jan 28, 3:00 PM)29.50 "Hg (Jan 24, 4:00 PM)
Average19 °F73%30.04 "Hg
* Reported Midnight between Jan 13 and Jan 14 — Midnight between Jan 28 and Jan 29, Brantford, Weather by CustomWeather, © 2014

Note: Actual official high and low records may vary slightly from our data, if they occured in-between our weather recording intervals... More about our weather records

Advertising

Brantford weather history for previous 24 hours

 ConditionsComfort  
Time TempWeatherWind HumidityBarometerVisibility
12:00 AM
Jan 29
16 °FPassing clouds.6 mph79%30.27 "Hg15 mi
11:00 PM
Jan 28
16 °FPartly cloudy.7 mph79%30.29 "Hg15 mi
10:00 PM14 °FPassing clouds.8 mph73%30.31 "Hg15 mi
9:00 PM12 °FPassing clouds.6 mph73%30.32 "Hg15 mi
8:00 PM16 °FPassing clouds.7 mph67%30.34 "Hg15 mi
7:00 PM16 °FPassing clouds.7 mph62%30.34 "Hg15 mi
6:00 PM18 °FPassing clouds.8 mph62%30.34 "Hg15 mi
5:00 PM21 °FScattered clouds.9 mph54%30.33 "Hg15 mi
4:00 PM25 °FPassing clouds.6 mph36%30.33 "Hg12 mi
3:00 PM25 °FPassing clouds.6 mph36%30.32 "Hg12 mi
2:00 PM23 °FPassing clouds.No wind42%30.32 "Hg15 mi
1:00 PM21 °FPassing clouds.3 mph42%30.34 "Hg15 mi
12:00 PM18 °FPassing clouds.7 mph53%30.37 "Hg15 mi
11:00 AM16 °FPassing clouds.5 mph57%30.37 "Hg15 mi
10:00 AM10 °FPassing clouds.9 mph72%30.35 "Hg15 mi
9:00 AM5 °FSunny.8 mph85%30.34 "Hg15 mi
8:00 AM0 °FSunny.8 mph84%30.32 "Hg15 mi
7:00 AM1 °FClear.7 mph78%30.29 "Hg15 mi
6:00 AM1 °FClear.6 mph78%30.27 "Hg15 mi
5:00 AM1 °FClear.7 mph85%30.25 "Hg15 mi
4:00 AM3 °FClear.10 mph85%30.23 "Hg15 mi
3:00 AM3 °FClear.9 mph78%30.22 "Hg15 mi
2:00 AM3 °FClear.5 mph72%30.21 "Hg15 mi
1:00 AM3 °FClear.6 mph66%30.20 "Hg15 mi
Weather by CustomWeather, © 2014

See weather overviewHow to use our weather pages